Regional Weather Roundup
Issued by NWS

Home | Current Version | Previous Version | Graphics & Text | Print | Product List | Glossary On
Versions: 1 2 3 4 5 6 7 8 9 10 11 12 13 14 15 16 17 18 19 20 21 22 23 24 25 26 27 28 29 30 31 32 33 34 35 36 37 38 39 40 41 42 43 44 45 46 47 48 49 50
000
ASUS45 KABQ 301701
RWRNM
NEW MEXICO REGIONAL WEATHER ROUNDUP
NATIONAL WEATHER SERVICE ALBUQUERQUE NM
1100 AM MDT THU MAR 30 2017

NOTE: "FAIR" MEANS FEW OR NO CLOUDS BELOW 12,000 FEET AGL WITH NO
       SIGNIFICANT WEATHER OR OBSTRUCTIONS TO VISION.

      THIS PRODUCT IS RELEASED AS TWO VERSIONS.  ONE VERSION NEAR
      THE TOP OF THE HOUR CONTAINING PRELIMINARY DATA FROM ALBUQUERQUE
      AND OTHER STATIONS.  A FINAL VERSION WITH ADDITIONAL DATA IS
      ISSUED ABOUT 10 MINUTES AFTER THE HOUR.

NMZ501-503-504-510>518-301800-
NORTHWEST PLATEAU/NORTHCENTRAL MOUNTAINS

CITY           SKY/WX    TMP DP  RH WIND       PRES   REMARKS
FARMINGTON     FAIR      53  23  31 SE6       29.93F
LOS ALAMOS     FAIR      45  31  57 NE3       30.00F
SANTA FE       FAIR      51  29  42 CALM      29.97F
TAOS             N/A     45  27  49 SW8       29.99S
ANGEL FIRE     FAIR      44  25  46 SW8       29.99S

$$
NMZ402-403-502-505>509-301800-
WESTCENTRAL MOUNTAINS/SOUTHWEST MOUNTAINS

CITY           SKY/WX    TMP DP  RH WIND       PRES   REMARKS
GALLUP         FAIR      56  24  29 SW16      29.99F
GRANTS         FAIR      55  22  27 SE8       30.01F
SILVER CITY    FAIR      62  24  23 W12       30.06S

$$
NMZ407-409-411-412-301800-
SOUTHERN DESERTS

CITY           SKY/WX    TMP DP  RH WIND       PRES   REMARKS
DEMING         FAIR      65  30  27 W9        30.02F
LAS CRUCES     FAIR      64  30  28 W8        30.02F
HOLLOMAN AFB   FAIR      61  35  39 S6        30.03F
ALAMOGORDO       N/A    N/A N/A N/A MISG        N/A
T OR C         FAIR      58  32  37 S6        29.99F

$$
NMZ519>523-301800-
CENTRAL VALLEYS/CENTRAL HIGHLANDS

CITY           SKY/WX    TMP DP  RH WIND       PRES   REMARKS
ALBUQUERQUE    FAIR      52  27  38 S9        29.99F
DOUBLE EAGLE   MOSUNNY   52  36  54 VRB6      30.00F
MORIARTY ARPT  FAIR      58  26  29 W10G17    29.99F
CLINES CORNERS FAIR      51  27  39 W21       29.99S
BELEN          FAIR      56  31  39 S5        29.99F
SOCORRO        FAIR      55  37  52 SE3       30.00F

$$
NMZ524>526-539-540-301800-
SOUTHCENTRAL MOUNTAINS

CITY           SKY/WX    TMP DP  RH WIND       PRES   REMARKS
RUIDOSO        NOT AVBL

$$
NMZ527>531-301800-
NORTHEAST HIGHLANDS/NORTHEAST PLAINS

CITY           SKY/WX    TMP DP  RH WIND       PRES   REMARKS
LAS VEGAS      FAIR      52  23  32 VRB5      29.93S
RATON          FAIR      50  29  44 NE3       29.88S
CLAYTON        FAIR      62  30  29 NE9       29.84F

$$
NMZ532>537-301800-
EASTCENTRAL PLAINS

CITY           SKY/WX    TMP DP  RH WIND       PRES   REMARKS
TUCUMCARI      FAIR      58  41  53 CALM      29.83F
CANNON AFB     FAIR      58  41  52 W18       29.87F
CLOVIS AIRPORT FAIR      61  39  44 W17       29.88S

$$
NMZ028-029-538-301800-
SOUTHEAST PLAINS

CITY           SKY/WX    TMP DP  RH WIND       PRES   REMARKS
ROSWELL        FAIR      63  40  42 E5        29.92
ARTESIA        FAIR      72  30  21 W15       29.91F
CARLSBAD       FAIR      73  31  21 MISG      29.90F
HOBBS          SUNNY     68  32  26 SW18G25   29.92F


$$



USA.gov is the U.S. government's official web portal to all federal, state and local government web resources and services.